Location: Vancouver
(49.2500°N, 123.1330°W)
Time: 17:21:45
(UTC-07:00)

Vanguard 2 Rocket - Visible Passes

Search period start: 25 June 2017 00:00
Search period end: 05 July 2017 00:00
Orbit: 554 x 3328 km, 32.9° (Epoch: 25 June)

Date Brightness Start Highest point End Pass type
(mag) Time Alt. Az. Time Alt. Az. Time Alt. Az.
26 Jun 8.7 23:17:41 10° SSW 23:21:43 15° S 23:21:43 15° S visible
27 Jun 8.8 22:17:47 10° SSW 22:22:35 15° SSE 22:26:23 10° SE visible
28 Jun 8.9 00:30:49 10° SW 00:32:24 13° SSW 00:32:24 13° SSW visible
28 Jun 8.4 23:30:20 10° SW 23:36:08 19° S 23:37:01 18° S visible
29 Jun 8.8 22:29:49 10° SW 22:36:51 20° S 22:41:29 11° SE visible
30 Jun 8.7 00:44:31 10° SW 00:47:20 16° SSW 00:47:20 16° SSW visible
30 Jun 8.3 23:43:40 10° SW 23:50:19 22° S 23:51:39 21° S visible
01 Jul 8.7 22:42:43 10° SW 22:51:04 24° S 22:55:51 13° SE visible
02 Jul 8.8 00:58:36 10° WSW 01:01:41 16° SW 01:01:41 16° SW visible
02 Jul 8.3 23:57:22 10° WSW 00:04:25 23° SSW 00:05:47 22° S visible
03 Jul 8.6 22:56:05 10° WSW 23:05:13 27° S 23:09:48 16° SE visible
04 Jul 9.0 01:13:05 10° WSW 01:15:37 14° SW 01:15:37 14° SW visible
04 Jul 9.0 21:54:44 10° SW 22:05:43 30° S 22:12:47 10° ESE visible
